Location: Lake Sonoma
(38.7200°N, 123.0564°W)
Time: 13:44:45
(UTC-07:00)

ISS - All Passes

Search period start: 27 April 2015 00:00
Search period end: 07 May 2015 00:00
Orbit: 395 x 402 km, 51.6° (Epoch: 27 April)

Date Brightness Start Highest point End Pass type
(mag) Time Alt. Az. Time Alt. Az. Time Alt. Az.
27 Apr - 11:41:04 10° SW 11:44:17 78° SE 11:47:33 10° NE daylight
27 Apr - 13:18:44 10° WNW 13:21:00 17° NNW 13:23:14 10° NNE daylight
27 Apr - 16:34:16 10° NNW 16:35:57 13° NNE 16:37:40 10° NE daylight
27 Apr - 18:09:38 10° NW 18:12:52 59° NE 18:16:05 10° ESE daylight
27 Apr - 19:47:18 10° W 19:48:54 13° SW 19:50:24 10° SSW daylight
28 Apr - 10:47:13 10° SSW 10:50:11 35° SE 10:53:13 10° ENE daylight
28 Apr - 12:23:48 10° W 12:26:36 26° NNW 12:29:24 10° NNE daylight
28 Apr - 15:40:49 10° N 15:41:25 10° N 15:42:04 10° NNE daylight
28 Apr - 17:15:38 10° NW 17:18:35 31° NNE 17:21:33 10° E daylight
28 Apr - 18:52:05 10° WNW 18:54:53 26° SW 18:57:39 10° SSE daylight
29 Apr - 09:54:00 10° S 09:56:08 17° SE 09:58:21 10° E daylight
29 Apr - 11:29:07 10° WSW 11:32:15 45° NW 11:35:24 10° NE daylight
29 Apr - 13:07:54 10° NW 13:09:16 12° NNW 13:10:37 10° N daylight
29 Apr - 16:21:43 10° NNW 16:24:11 20° NNE 16:26:40 10° ENE daylight
29 Apr - 17:57:33 10° WNW 18:00:46 57° SW 18:03:57 10° SE daylight
30 Apr - 10:34:44 10° SW 10:37:58 87° SE 10:41:14 10° NE daylight
30 Apr - 12:12:33 10° WNW 12:14:42 16° NNW 12:16:50 10° NNE daylight
30 Apr - 15:27:52 10° NNW 15:29:39 14° NNE 15:31:28 10° NE daylight
30 Apr - 17:03:16 10° NW 17:06:31 65° NE 17:09:45 10° ESE daylight
30 Apr - 18:41:17 10° WSW 18:42:31 12° SW 18:43:37 10° SSW daylight
01 May - 09:40:43 10° SSW 09:43:44 38° SE 09:46:48 10° ENE daylight
01 May - 11:17:27 10° W 11:20:11 24° NNW 11:22:54 10° NNE daylight
01 May - 14:34:13 10° N 14:35:01 11° NNE 14:35:50 10° NNE daylight
01 May - 16:09:08 10° NW 16:12:08 33° NNE 16:15:09 10° E daylight
01 May - 17:45:41 10° WNW 17:48:23 24° SW 17:51:02 10° S daylight
02 May - 08:47:15 10° S 08:49:33 18° SE 08:51:55 10° E daylight
02 May - 10:22:37 10° WSW 10:25:42 41° NNW 10:28:48 10° NE daylight
02 May - 12:01:31 10° NW 12:02:45 12° NNW 12:03:56 10° N daylight
02 May - 15:15:04 10° NNW 15:17:37 21° NNE 15:20:11 10° ENE daylight
02 May - 16:50:59 10° WNW 16:54:09 51° SW 16:57:18 10° SE daylight
03 May - 09:28:03 10° SW 09:31:17 85° NW 09:34:32 10° NE daylight
03 May - 11:05:59 10° WNW 11:08:03 15° NNW 11:10:05 10° NNE daylight
03 May - 14:21:06 10° NNW 14:22:58 14° NNE 14:24:53 10° NE daylight
03 May - 15:56:33 10° NW 15:59:48 72° NE 16:03:02 10° ESE daylight
03 May - 17:35:05 10° WSW 17:35:45 10° SW 17:36:17 10° SW daylight
04 May - 08:33:51 10° SSW 08:36:55 43° SE 08:40:01 10° ENE daylight
04 May - 10:10:44 10° W 10:13:23 23° NNW 10:16:02 10° NNE daylight
04 May - 13:27:17 10° N 13:28:13 11° NNE 13:29:11 10° NNE daylight
04 May - 15:02:16 10° NW 15:05:18 36° NNE 15:08:21 10° ESE daylight
04 May - 16:38:55 10° W 16:41:31 22° SW 16:44:04 10° S daylight
05 May - 07:40:10 10° S 07:42:36 20° SE 07:45:05 10° E daylight
05 May - 09:15:43 10° WSW 09:18:46 38° NNW 09:21:50 10° NE daylight
05 May - 10:54:45 10° NNW 10:55:50 11° NNW 10:56:52 10° N daylight
05 May - 14:08:05 10° NNW 14:10:41 22° NNE 14:13:17 10° E daylight
05 May - 15:44:02 10° WNW 15:47:10 46° SW 15:50:17 10° SSE daylight
06 May - 08:21:00 10° SW 08:24:13 78° NW 08:27:28 10° NE daylight
06 May - 09:59:02 10° WNW 10:01:01 15° NNW 10:02:57 10° NNE daylight
06 May - 13:13:57 10° NNW 13:15:55 15° NNE 13:17:54 10° ENE daylight
06 May - 14:49:27 10° NW 14:52:42 79° NE 14:55:57 10° SE daylight
